Regional Weather Roundup
Issued by NWS State College, PA

Home | Current Version | Previous Version | Graphics & Text | Print | Product List | Glossary Off
Versions: 1 2 3 4 5 6 7 8 9 10 11 12 13 14 15 16 17 18 19 20 21 22 23 24 25 26 27 28 29 30 31 32 33 34 35 36 37 38 39 40 41 42 43 44 45 46 47 48 49 50

000
ASUS41 KCTP 012103
RWRCTP

REGIONAL WEATHER ROUNDUP
NATIONAL WEATHER SERVICE STATE COLLEGE PA
500 PM EDT FRI AUG 01 2014

Note: "fair" indicates few or no clouds below 12,000 feet with no
significant weather and/or obstructions to visibility.

* = STATION THAT DOES NOT REPORT PRECIPITATION /E.G. RAIN...SNOW...ETC/
    THUNDER OR FOG.

PAZ002>004-007>009-013>016-020>023-029>032-012200-
WESTERN PENNSYLVANIA

CITY           SKY/WX    TMP DP  RH WIND       PRES   REMARKS
ERIE           MOSUNNY   80  60  50 NW5       30.10F
MEADVILLE      PTSUNNY   80  59  48 VRB6      30.12F
FRANKLIN*      MOSUNNY   79  59  50 SE7       30.14F
NEW CASTLE     FAIR      85  62  45 VRB3      30.10F
BEAVER COUNTY  SUNNY     82  57  42 SE5       30.11F
BUTLER*        MOSUNNY   81  61  50 SE6       30.13F
PITTSBURGH INT MOSUNNY   82  55  39 VRB5      30.10F
PITTSBURGH     CLOUDY    79  59  50 SE7       30.10F
INDIANA*       MOSUNNY   79  63  57 SE6G12    30.17F
LATROBE        PTSUNNY   79  64  61 VRB6      30.13F
WASHINGTON CO* MOSUNNY   81  63  54 SE6       30.11F
$$

PAZ004>006-010>012-017>019-024>028-033>037-041-042-045-046-049>053-012200-
CENTRAL PENNSYLVANIA

CITY           SKY/WX    TMP DP  RH WIND       PRES   REMARKS
BRADFORD       MOSUNNY   78  55  44 VRB5      30.17S
DUBOIS         PTSUNNY   78  61  55 S14G20    30.15S
CLEARFIELD     PTSUNNY   78  62  57 VRB3      30.16S
JOHNSTOWN      PTSUNNY   73  58  59 S12       30.18S
ALTOONA        PTSUNNY   78  61  55 S8        30.17S
STATE COLLEGE  PTSUNNY   73  63  68 S5        30.17R
WILLIAMSPORT   PTSUNNY   82  65  56 SE5       30.12S
SELINSGROVE    CLOUDY    75  63  66 S9        30.16R
FT INDIANTOWN  CLOUDY    71  68  92 CALM      30.19R
CAPITAL CITY   CLOUDY    75  64  68 CALM      30.16F
HARRISBURG     CLOUDY    76  64  66 NE3       30.16S
YORK           CLOUDY    77  64  64 SW5       30.17S
$$

PAZ038>040-043-044-047-048-054-055-060>062-067>071-012200-
EASTERN PENNSYLVANIA

CITY           SKY/WX    TMP DP  RH WIND       PRES   REMARKS
SCRANTON       CLOUDY    75  67  76 E3        30.17R
MOUNT POCONO   CLOUDY    75  63  66 S9        30.23R
ALLENTOWN      CLOUDY    78  64  61 E15G21    30.18R
QUAKERTOWN*    CLOUDY    73  66  78 SE10G20   30.20R
READING        CLOUDY    76  63  64 W14G21    30.17R
LANCASTER      CLOUDY    72  66  81 CALM      30.18R
COATESVILLE    LGT RAIN  68  68 100 CALM      30.22S
POTTSTOWN      LGT RAIN  71  64  78 S7        30.20R
BLUE BELL      CLOUDY    72  68  88 S6        30.20R
DOYLESTOWN     LGT RAIN  68  67  96 S3        30.21R
WILLOW GROVE   NOT AVBL
NORTH PHILA    LGT RAIN  72  65  78 S7        30.22R
PHILADELPHIA   LGT RAIN  71  66  84 SE6       30.20S
$$


USA.gov is the U.S. government's official web portal to all federal, state and local government web resources and services.